{"data":{"norad_id":64205,"intl_designator":"2025-117C","name":"STARLINK-34251","alt_names":[],"object_type":"PAYLOAD","status":"ACTIVE","operator":null,"country":"US","launch_date":"2025-05-31","launch_site_code":"AFWTR","launch_vehicle":null,"mission":null,"orbit_class":"UNKNOWN","rcs_meters":null,"size_class":null,"mass_kg":null,"dimensions":null,"purposes":["comms"],"wikipedia_slug":null,"has_3d_model":false,"image_url":null,"decayed_at":null,"tle_current":{"epoch":"2026-05-25T04:00:03.998880Z","epoch_age_seconds":60088,"freshness":"FRESH","line1":"1 64205U 25117C   26145.16671295  .00037344  00000+0  11121-2 0  9996","line2":"2 64205  53.1609  44.5724 0001112  64.5121 232.7274 15.34367204  5853","mean_motion":15.34367204,"eccentricity":0.0001112,"inclination_deg":53.1609,"raan_deg":44.5724,"arg_perigee_deg":64.5121,"mean_anomaly_deg":232.7274,"bstar":0.0011121,"rev_number":585,"period_min":93.849764009946,"perigee_km":462.04000629248,"apogee_km":463.56143084109,"semimajor_km":6840.9377185668,"source":"CELESTRAK","updated_at":"2026-05-25T13:38:20.316432Z"}}}